Location: Banios
(43.0451°N, 0.2335°E)
Time: 21:06:40
(UTC+00:00)

Cosmos 2084 Rocket - Pass Details

Date: 25 January 2021
Orbit: 532 x 649 km, 62.8° (Epoch: 01 March)

Event Time Altitude Azimuth Distance (km) Brightness Sun altitude
Exits shadow 05:57:21 18° 323° (NW) 1,477 5.1 -15.3°
Maximum altitude 06:00:34 88° 233° (SW) 619 3.5 -14.7°
Drops below altitude 10° 06:05:06 10° 145° (SE) 1,997 6.9 -13.9°
Sets 06:07:25 0° 145° (SE) 2,915 7.8 -13.5°
